IBE043A LEMD-LEPA

Flight info

Callsign IBE043A
Flight time N/A
Altitude 30000
Route NANDO M871 GODOX
Aircraft A346/H-SDE2E3FGHIJ3J4J5M1RWXY/LB1D1

Departure

Time 2026-05-07 15:52
Airport Adolfo Suárez Madrid–Barajas Airport (LEMD)

Arrival

Time N/A
Airport Palma de Mallorca Airport (LEPA)
Time Latitude Longitude Altitude Speed Heading
2026-05-07 15:32 40.49926 -3.56871 1981 ft 0 kts 156°
2026-05-07 15:39 40.49924 -3.56870 1981 ft 1 kts 156°
2026-05-07 15:39 40.49922 -3.56869 1981 ft 1 kts 156°
2026-05-07 15:39 40.49940 -3.56879 1983 ft 5 kts 156°
2026-05-07 15:39 40.49970 -3.56897 1985 ft 4 kts 155°
2026-05-07 15:40 40.49997 -3.56912 1986 ft 5 kts 173°
2026-05-07 15:40 40.50016 -3.56879 1986 ft 5 kts 278°
2026-05-07 15:40 40.50017 -3.56887 1986 ft 1 kts 278°
2026-05-07 15:41 40.50019 -3.56908 1985 ft 3 kts 278°
2026-05-07 15:41 40.50022 -3.56934 1986 ft 0 kts 279°
2026-05-07 15:43 40.50023 -3.56940 1986 ft 2 kts 279°
2026-05-07 15:44 40.50025 -3.56971 1985 ft 5 kts 270°
2026-05-07 15:44 40.50024 -3.57026 1988 ft 7 kts 268°
2026-05-07 15:44 40.50010 -3.57096 1987 ft 8 kts 223°
2026-05-07 15:44 40.49960 -3.57115 1992 ft 9 kts 187°
2026-05-07 15:45 40.49879 -3.57119 1997 ft 12 kts 179°
2026-05-07 15:45 40.49778 -3.57118 1993 ft 17 kts 179°
2026-05-07 15:45 40.49648 -3.57116 1992 ft 20 kts 179°
2026-05-07 15:45 40.49509 -3.57115 1988 ft 18 kts 180°
2026-05-07 15:46 40.49379 -3.57115 1987 ft 1 kts 180°
2026-05-07 15:46 40.49352 -3.57115 1987 ft 6 kts 180°
2026-05-07 15:46 40.49300 -3.57114 1988 ft 9 kts 180°
2026-05-07 15:47 40.49209 -3.57114 1989 ft 16 kts 179°
2026-05-07 15:47 40.49089 -3.57112 1989 ft 19 kts 179°
2026-05-07 15:47 40.48961 -3.57112 1991 ft 8 kts 180°
2026-05-07 15:47 40.48909 -3.57112 1989 ft 0 kts 180°
2026-05-07 15:48 40.48905 -3.57112 1989 ft 1 kts 180°
2026-05-07 15:48 40.48884 -3.57112 1990 ft 4 kts 180°
2026-05-07 15:48 40.48842 -3.57112 1990 ft 8 kts 180°
2026-05-07 15:48 40.48786 -3.57132 1992 ft 9 kts 225°
2026-05-07 15:49 40.48770 -3.57188 1994 ft 0 kts 264°
2026-05-07 15:49 40.48769 -3.57202 1994 ft 4 kts 264°
2026-05-07 15:49 40.48766 -3.57246 1994 ft 6 kts 264°
2026-05-07 15:49 40.48757 -3.57301 1994 ft 6 kts 243°
2026-05-07 15:50 40.48726 -3.57334 1998 ft 5 kts 198°
2026-05-07 15:50 40.48697 -3.57338 1999 ft 6 kts 179°
2026-05-07 15:50 40.48623 -3.57373 2001 ft 16 kts 226°
2026-05-07 15:50 40.48556 -3.57486 2002 ft 16 kts 221°
2026-05-07 15:51 40.48468 -3.57551 2002 ft 9 kts 181°
2026-05-07 15:51 40.48395 -3.57502 2002 ft 27 kts 143°
2026-05-07 15:51 40.48036 -3.57134 2011 ft 100 kts 142°
2026-05-07 15:51 40.47301 -3.56389 1996 ft 161 kts 142°
2026-05-07 15:52 40.46316 -3.55371 2291 ft 183 kts 139°
2026-05-07 15:52 40.45366 -3.54341 3189 ft 175 kts 132°
2026-05-07 15:52 40.44570 -3.53131 3917 ft 175 kts 124°
2026-05-07 15:52 40.43836 -3.51798 4462 ft 186 kts 129°
2026-05-07 15:53 40.42905 -3.50461 4867 ft 206 kts 137°
2026-05-07 15:53 40.41753 -3.49244 5093 ft 231 kts 146°
2026-05-07 15:53 40.40328 -3.48143 5669 ft 237 kts 147°
2026-05-07 15:53 40.39107 -3.46717 6631 ft 234 kts 130°
2026-05-07 15:54 40.38216 -3.44912 7490 ft 238 kts 119°
2026-05-07 15:54 40.37296 -3.43135 8360 ft 234 kts 140°
2026-05-07 15:54 40.36073 -3.41950 9175 ft 233 kts 152°
2026-05-07 15:54 40.34598 -3.40947 9837 ft 246 kts 157°
2026-05-07 15:55 40.32996 -3.39953 10330 ft 264 kts 156°
2026-05-07 15:55 40.31330 -3.38794 10892 ft 277 kts 148°
2026-05-07 15:55 40.29824 -3.37165 11677 ft 284 kts 136°
2026-05-07 15:55 40.28546 -3.35201 12565 ft 287 kts 131°
2026-05-07 15:56 40.27473 -3.32937 13293 ft 301 kts 114°
2026-05-07 15:56 40.26785 -3.30256 13792 ft 319 kts 108°
2026-05-07 15:56 40.26164 -3.27371 14186 ft 338 kts 107°
2026-05-07 15:56 40.25500 -3.24330 14597 ft 356 kts 108°
2026-05-07 15:57 40.24768 -3.21117 15010 ft 375 kts 108°
2026-05-07 15:57 40.23983 -3.17778 15486 ft 389 kts 109°
2026-05-07 15:57 40.23165 -3.14366 16269 ft 395 kts 109°
2026-05-07 15:57 40.22330 -3.10923 17150 ft 399 kts 109°
2026-05-07 15:58 40.21490 -3.07482 17982 ft 404 kts 109°
2026-05-07 15:58 40.20623 -3.03951 18719 ft 409 kts 109°
2026-05-07 15:58 40.19746 -3.00386 19473 ft 412 kts 109°
2026-05-07 15:58 40.18862 -2.96805 20226 ft 416 kts 110°
2026-05-07 15:59 40.17962 -2.93173 20956 ft 420 kts 110°
2026-05-07 15:59 40.17054 -2.89511 21679 ft 425 kts 110°
2026-05-07 15:59 40.16132 -2.85802 22405 ft 429 kts 110°
2026-05-07 15:59 40.15215 -2.82114 23102 ft 434 kts 110°
2026-05-07 16:00 40.14272 -2.78330 23688 ft 438 kts 110°
2026-05-07 16:00 40.13321 -2.74522 23932 ft 441 kts 110°
2026-05-07 16:00 40.12365 -2.70700 23949 ft 441 kts 110°
2026-05-07 16:00 40.11411 -2.66889 23951 ft 441 kts 110°
2026-05-07 16:01 40.10460 -2.63076 23955 ft 440 kts 111°
2026-05-07 16:01 40.09499 -2.59267 23984 ft 443 kts 111°
2026-05-07 16:01 40.08521 -2.55405 24444 ft 449 kts 111°
2026-05-07 16:01 40.07543 -2.51537 25216 ft 448 kts 111°
2026-05-07 16:02 40.06565 -2.47670 25880 ft 449 kts 111°
2026-05-07 16:02 40.05577 -2.43768 26491 ft 453 kts 111°
2026-05-07 16:02 40.04596 -2.39896 27071 ft 456 kts 111°
2026-05-07 16:02 40.03594 -2.35943 27700 ft 458 kts 111°